QPF
0.01 0.02 0.02 0.02 0.01 0.02 0.03 0.03 0.03 0.03 0.03 0.02 0.01 0.02 0.01 0.02 0.02 0.03 0.03 0.04 0.05 0.04 0.03 0.03 0.04 0.03 0.04 0.04 0.04 0.05 0.06 0.06 0.06 0.04 0.04 0.02 0.03 0.02 0.01 0.01 0.01 0.00 0.01
0.01 0.02 0.02 0.01 0.01 0.01 0.02 0.02 0.03 0.03 0.02 0.01 0.01 0.02 0.01 0.01 0.02 0.02 0.02 0.02 0.05 0.07 0.05 0.04 0.04 0.04 0.04 0.04 0.04 0.04 0.04 0.05 0.05 0.04 0.02 0.02 0.02 0.02 0.02 0.02 0.01 0.01 0.01
0.02 0.03 0.03 0.02 0.02 0.01 0.01 0.01 0.02 0.02 0.02 0.01 0.01 0.02 0.02 0.02 0.02 0.02 0.02 0.02 0.02 0.03 0.04 0.04 0.04 0.03 0.04 0.04 0.03 0.03 0.03 0.03 0.04 0.03 0.02 0.02 0.01 0.01 0.01 0.01 0.01 0.01 0.00
0.01 0.01 0.02 0.03 0.03 0.03 0.03 0.03 0.02 0.02 0.02 0.02 0.02 0.02 0.02 0.01 0.01 0.02 0.02 0.02 0.02 0.02 0.02 0.03 0.04 0.03 0.03 0.03 0.03 0.03 0.03 0.03 0.04 0.03 0.02 0.01 0.01 0.01 0.01 0.01 0.01 0.00 0.00
0.01 0.02 0.04 0.05 0.06 0.06 0.06 0.05 0.04 0.02 0.01 0.01 0.02 0.02 0.02 0.01 0.01 0.02 0.02 0.01 0.02 0.02 0.02 0.02 0.02 0.02 0.02 0.02 0.02 0.02 0.03 0.03 0.03 0.03 0.03 0.03 0.02 0.02 0.01 0.01 0.01 0.01 0.00
0.01 0.02 0.03 0.04 0.05 0.05 0.06 0.06 0.04 0.02 0.02 0.02 0.02 0.02 0.01 0.01 0.01 0.02 0.02 0.02 0.01 0.01 0.01 0.01 0.01 0.01 0.01 0.02 0.03 0.03 0.04 0.04 0.04 0.04 0.04 0.03 0.03 0.02 0.02 0.01 0.01 0.01 0.01
0.02 0.03 0.03 0.02 0.03 0.03 0.04 0.04 0.05 0.04 0.03 0.02 0.02 0.01 0.01 0.01 0.01 0.01 0.01 0.01 0.01 0.00 0.00 0.00 0.01 0.01 0.02 0.03 0.03 0.03 0.03 0.03 0.04 0.04 0.04 0.03 0.03 0.02 0.02 0.01 0.01 0.01 0.01
0.03 0.04 0.03 0.02 0.03 0.03 0.04 0.05 0.05 0.04 0.04 0.03 0.02 0.02 0.01 0.00 0.01 0.01 0.01 0.00 0.00 0.00 0.01 0.01 0.01 0.02 0.03 0.04 0.03 0.03 0.03 0.03 0.03 0.04 0.04 0.04 0.04 0.03 0.03 0.02 0.02 0.01 0.01
0.02 0.03 0.02 0.02 0.03 0.04 0.05 0.07 0.07 0.06 0.06 0.04 0.03 0.02 0.01 0.00 0.00 0.00 0.00 0.00 0.00 0.00 0.01 0.02 0.02 0.02 0.02 0.03 0.04 0.04 0.03 0.03 0.04 0.04 0.03 0.03 0.02 0.02 0.03 0.03 0.03 0.02 0.02
0.01 0.02 0.02 0.02 0.03 0.08 0.08 0.07 0.06 0.06 0.05 0.03 0.02 0.02 0.02 0.01 0.01 0.01 0.01 0.01 0.01 0.02 0.02 0.03 0.02 0.02 0.02 0.02 0.03 0.04 0.04 0.04 0.04 0.03 0.02 0.02 0.02 0.02 0.02 0.03 0.03 0.03 0.02
0.01 0.01 0.01 0.01 0.03 0.06 0.05 0.04 0.05 0.05 0.04 0.03 0.03 0.03 0.03 0.03 0.03 0.03 0.02 0.02 0.02 0.02 0.02 0.02 0.03 0.03 0.03 0.02 0.02 0.03 0.03 0.02 0.02 0.02 0.02 0.02 0.02 0.02 0.02 0.02 0.02 0.03 0.03
0.01 0.01 0.01 0.01 0.02 0.03 0.03 0.04 0.05 0.05 0.05 0.05 0.05 0.05 0.04 0.05 0.04 0.03 0.02 0.02 0.03 0.03 0.04 0.05 0.05 0.05 0.04 0.02 0.01 0.01 0.01 0.01 0.01 0.01 0.02 0.02 0.03 0.02 0.02 0.02 0.03 0.03 0.04
0.02 0.01 0.01 0.01 0.01 0.01 0.02 0.05 0.05 0.04 0.04 0.05 0.04 0.04 0.03 0.03 0.03 0.02 0.03 0.04 0.05 0.06 0.06 0.07 0.07 0.06 0.04 0.03 0.02 0.02 0.01 0.01 0.01 0.02 0.02 0.03 0.04 0.04 0.04 0.04 0.04 0.04 0.04
0.01 0.01 0.01 0.01 0.01 0.01 0.01 0.03 0.04 0.03 0.03 0.03 0.03 0.03 0.03 0.03 0.03 0.02 0.03 0.04 0.04 0.04 0.04 0.04 0.03 0.03 0.02 0.02 0.02 0.02 0.02 0.02 0.02 0.02 0.03 0.03 0.04 0.05 0.07 0.07 0.07 0.06 0.04
0.02 0.02 0.01 0.01 0.01 0.01 0.02 0.02 0.03 0.02 0.03 0.03 0.02 0.03 0.03 0.03 0.03 0.02 0.01 0.01 0.02 0.02 0.02 0.02 0.02 0.02 0.02 0.02 0.02 0.02 0.02 0.02 0.02 0.02 0.03 0.04 0.04 0.04 0.05 0.07 0.07 0.06 0.05
0.01 0.02 0.01 0.01 0.00 0.01 0.01 0.02 0.03 0.03 0.03 0.04 0.04 0.03 0.03 0.03 0.03 0.01 0.01 0.01 0.01 0.02 0.02 0.02 0.03 0.03 0.02 0.01 0.01 0.01 0.02 0.02 0.02 0.02 0.02 0.03 0.04 0.04 0.05 0.05 0.05 0.04 0.04
0.01 0.02 0.02 0.01 0.01 0.01 0.01 0.02 0.03 0.04 0.05 0.06 0.06 0.05 0.04 0.04 0.04 0.02 0.01 0.01 0.02 0.02 0.02 0.02 0.03 0.02 0.01 0.01 0.01 0.01 0.01 0.02 0.02 0.02 0.02 0.03 0.03 0.04 0.04 0.04 0.04 0.03 0.03
0.03 0.03 0.02 0.02 0.01 0.02 0.02 0.03 0.03 0.03 0.04 0.05 0.06 0.06 0.05 0.04 0.03 0.03 0.03 0.03 0.03 0.03 0.03 0.03 0.03 0.02 0.01 0.01 0.01 0.01 0.01 0.01 0.01 0.01 0.01 0.02 0.03 0.03 0.03 0.04 0.03 0.03 0.03
0.04 0.04 0.04 0.03 0.03 0.04 0.05 0.05 0.03 0.03 0.03 0.04 0.05 0.06 0.07 0.06 0.07 0.06 0.04 0.02 0.02 0.02 0.02 0.02 0.02 0.02 0.01 0.01 0.01 0.01 0.01 0.01 0.01 0.01 0.02 0.03 0.03 0.03 0.03 0.03 0.03 0.03 0.03
0.04 0.06 0.09 0.10 0.09 0.08 0.07 0.05 0.04 0.04 0.04 0.04 0.05 0.06 0.07 0.07 0.05 0.03 0.02 0.03 0.03 0.03 0.02 0.01 0.01 0.01 0.01 0.01 0.01 0.00 0.00 0.00 0.01 0.01 0.02 0.03 0.04 0.04 0.03 0.03 0.03 0.03 0.03
0.03 0.05 0.08 0.07 0.06 0.07 0.06 0.05 0.04 0.04 0.04 0.04 0.06 0.07 0.07 0.06 0.05 0.04 0.03 0.03 0.04 0.04 0.02 0.01 0.01 0.01 0.01 0.01 0.01 0.00 0.00 0.01 0.01 0.01 0.02 0.02 0.03 0.04 0.04 0.03 0.03 0.03 0.03
0.04 0.03 0.03 0.03 0.03 0.03 0.03 0.03 0.04 0.04 0.04 0.05 0.06 0.06 0.07 0.06 0.05 0.05 0.04 0.03 0.03 0.03 0.02 0.02 0.01 0.02 0.02 0.02 0.01 0.01 0.01 0.01 0.01 0.01 0.02 0.02 0.02 0.02 0.03 0.03 0.03 0.03 0.02
0.03 0.02 0.02 0.03 0.03 0.04 0.04 0.04 0.04 0.05 0.06 0.06 0.06 0.04 0.04 0.03 0.04 0.04 0.04 0.03 0.02 0.02 0.02 0.02 0.02 0.02 0.02 0.02 0.02 0.02 0.01 0.01 0.02 0.02 0.02 0.02 0.02 0.02 0.02 0.02 0.02 0.02 0.02
0.02 0.02 0.02 0.02 0.03 0.04 0.04 0.03 0.05 0.06 0.06 0.06 0.05 0.04 0.04 0.03 0.03 0.03 0.02 0.02 0.01 0.01 0.01 0.01 0.02 0.02 0.02 0.02 0.02 0.02 0.01 0.01 0.02 0.02 0.02 0.02 0.02 0.02 0.02 0.02 0.02 0.01 0.02
0.02 0.02 0.03 0.03 0.03 0.03 0.03 0.04 0.04 0.04 0.05 0.05 0.04 0.03 0.02 0.02 0.02 0.01 0.01 0.01 0.01 0.01 0.01 0.01 0.01 0.02 0.02 0.02 0.02 0.02 0.02 0.03 0.02 0.02 0.02 0.01 0.01 0.01 0.01 0.01 0.01 0.01 0.01
0.02 0.03 0.03 0.03 0.03 0.03 0.04 0.04 0.04 0.05 0.05 0.04 0.03 0.03 0.03 0.02 0.02 0.01 0.01 0.01 0.01 0.01 0.01 0.01 0.01 0.01 0.02 0.02 0.02 0.01 0.02 0.02 0.03 0.02 0.01 0.01 0.01 0.01 0.01 0.01 0.02 0.02 0.02
MSLP
1012.92 1012.84 1012.77 1012.69 1012.58 1012.42 1012.24 1012.02 1011.79 1011.56 1011.35 1011.16 1011.00 1010.86 1010.74 1010.61 1010.49 1010.36 1010.22 1010.10 1010.00 1009.93 1009.90 1009.92 1010.00 1010.12 1010.27 1010.45 1010.64 1010.83 1011.02 1011.21 1011.39 1011.58 1011.77 1011.98 1012.19 1012.42 1012.66 1012.90 1013.14 1013.38 1013.61
1013.14 1012.97 1012.80 1012.62 1012.42 1012.20 1011.96 1011.70 1011.45 1011.20 1010.98 1010.78 1010.62 1010.46 1010.32 1010.18 1010.02 1009.86 1009.69 1009.53 1009.38 1009.28 1009.22 1009.22 1009.28 1009.39 1009.55 1009.74 1009.97 1010.20 1010.44 1010.69 1010.94 1011.18 1011.42 1011.66 1011.90 1012.13 1012.36 1012.58 1012.79 1013.00 1013.19
1013.48 1013.20 1012.93 1012.65 1012.36 1012.06 1011.75 1011.44 1011.15 1010.89 1010.65 1010.45 1010.27 1010.11 1009.95 1009.78 1009.60 1009.40 1009.19 1008.99 1008.81 1008.66 1008.57 1008.54 1008.57 1008.66 1008.82 1009.02 1009.26 1009.52 1009.81 1010.10 1010.39 1010.67 1010.95 1011.22 1011.47 1011.71 1011.93 1012.12 1012.31 1012.48 1012.64
1013.81 1013.44 1013.08 1012.71 1012.33 1011.95 1011.58 1011.23 1010.90 1010.61 1010.36 1010.14 1009.95 1009.78 1009.60 1009.40 1009.19 1008.96 1008.72 1008.48 1008.25 1008.07 1007.93 1007.86 1007.87 1007.94 1008.08 1008.28 1008.53 1008.81 1009.11 1009.43 1009.75 1010.07 1010.38 1010.66 1010.93 1011.16 1011.37 1011.55 1011.71 1011.86 1012.00
1014.02 1013.60 1013.17 1012.74 1012.29 1011.85 1011.42 1011.02 1010.66 1010.34 1010.07 1009.84 1009.63 1009.43 1009.23 1009.01 1008.77 1008.50 1008.22 1007.94 1007.68 1007.46 1007.29 1007.19 1007.16 1007.21 1007.33 1007.52 1007.76 1008.05 1008.36 1008.70 1009.04 1009.37 1009.70 1010.00 1010.27 1010.51 1010.72 1010.90 1011.05 1011.18 1011.30
1014.09 1013.64 1013.17 1012.69 1012.20 1011.71 1011.24 1010.80 1010.40 1010.05 1009.75 1009.49 1009.26 1009.03 1008.80 1008.55 1008.27 1007.97 1007.66 1007.34 1007.05 1006.80 1006.60 1006.48 1006.43 1006.46 1006.57 1006.74 1006.98 1007.26 1007.58 1007.92 1008.26 1008.61 1008.95 1009.27 1009.55 1009.81 1010.02 1010.20 1010.35 1010.48 1010.60
1014.00 1013.55 1013.07 1012.56 1012.04 1011.52 1011.01 1010.53 1010.09 1009.70 1009.36 1009.05 1008.78 1008.52 1008.25 1007.96 1007.64 1007.31 1006.97 1006.63 1006.32 1006.05 1005.85 1005.71 1005.66 1005.68 1005.79 1005.96 1006.20 1006.48 1006.79 1007.13 1007.49 1007.84 1008.19 1008.52 1008.82 1009.09 1009.32 1009.51 1009.67 1009.80 1009.91
1013.82 1013.37 1012.88 1012.36 1011.81 1011.25 1010.70 1010.17 1009.67 1009.23 1008.84 1008.48 1008.16 1007.85 1007.53 1007.20 1006.86 1006.50 1006.13 1005.79 1005.47 1005.21 1005.01 1004.89 1004.85 1004.90 1005.02 1005.20 1005.45 1005.74 1006.06 1006.41 1006.76 1007.13 1007.48 1007.82 1008.14 1008.43 1008.67 1008.88 1009.05 1009.19 1009.30
1013.61 1013.16 1012.66 1012.11 1011.52 1010.91 1010.30 1009.71 1009.15 1008.64 1008.18 1007.77 1007.38 1007.01 1006.65 1006.28 1005.91 1005.53 1005.17 1004.82 1004.53 1004.29 1004.13 1004.04 1004.05 1004.13 1004.29 1004.52 1004.79 1005.10 1005.44 1005.80 1006.17 1006.54 1006.90 1007.26 1007.58 1007.88 1008.14 1008.37 1008.54 1008.68 1008.79
1013.42 1012.95 1012.42 1011.82 1011.18 1010.50 1009.82 1009.15 1008.52 1007.93 1007.40 1006.91 1006.47 1006.05 1005.65 1005.25 1004.86 1004.48 1004.12 1003.81 1003.55 1003.36 1003.25 1003.23 1003.30 1003.45 1003.67 1003.96 1004.28 1004.63 1005.00 1005.38 1005.77 1006.14 1006.51 1006.87 1007.20 1007.50 1007.77 1007.99 1008.18 1008.31 1008.41
1013.26 1012.74 1012.16 1011.49 1010.77 1010.01 1009.25 1008.49 1007.78 1007.12 1006.52 1005.97 1005.48 1005.02 1004.59 1004.18 1003.79 1003.43 1003.10 1002.82 1002.62 1002.49 1002.46 1002.52 1002.67 1002.91 1003.21 1003.57 1003.96 1004.36 1004.77 1005.18 1005.58 1005.96 1006.33 1006.68 1007.00 1007.30 1007.56 1007.78 1007.95 1008.07 1008.15
1013.09 1012.51 1011.85 1011.10 1010.30 1009.45 1008.59 1007.76 1006.97 1006.25 1005.59 1005.01 1004.48 1004.01 1003.58 1003.18 1002.81 1002.48 1002.19 1001.97 1001.83 1001.78 1001.83 1001.98 1002.22 1002.55 1002.94 1003.38 1003.83 1004.30 1004.75 1005.19 1005.60 1005.98 1006.34 1006.67 1006.97 1007.25 1007.49 1007.69 1007.84 1007.95 1008.01
1012.86 1012.21 1011.46 1010.63 1009.73 1008.80 1007.87 1006.98 1006.14 1005.37 1004.69 1004.09 1003.57 1003.11 1002.70 1002.33 1002.00 1001.72 1001.49 1001.34 1001.26 1001.29 1001.41 1001.64 1001.97 1002.38 1002.86 1003.37 1003.89 1004.41 1004.90 1005.36 1005.78 1006.15 1006.49 1006.78 1007.06 1007.30 1007.50 1007.68 1007.81 1007.90 1007.95
1012.52 1011.79 1010.96 1010.06 1009.09 1008.10 1007.12 1006.18 1005.32 1004.55 1003.87 1003.30 1002.80 1002.38 1002.02 1001.71 1001.44 1001.22 1001.05 1000.95 1000.94 1001.02 1001.22 1001.51 1001.91 1002.38 1002.92 1003.49 1004.07 1004.62 1005.14 1005.61 1006.02 1006.38 1006.68 1006.94 1007.17 1007.37 1007.54 1007.69 1007.80 1007.87 1007.90
1012.03 1011.24 1010.36 1009.39 1008.38 1007.36 1006.36 1005.43 1004.58 1003.83 1003.20 1002.67 1002.24 1001.88 1001.59 1001.34 1001.14 1000.97 1000.86 1000.81 1000.85 1000.98 1001.21 1001.55 1001.98 1002.50 1003.07 1003.68 1004.28 1004.86 1005.38 1005.85 1006.24 1006.57 1006.84 1007.06 1007.25 1007.40 1007.54 1007.65 1007.74 1007.81 1007.84
1011.42 1010.59 1009.67 1008.69 1007.67 1006.65 1005.67 1004.76 1003.96 1003.27 1002.70 1002.25 1001.89 1001.61 1001.39 1001.21 1001.07 1000.96 1000.89 1000.88 1000.94 1001.09 1001.34 1001.68 1002.13 1002.66 1003.24 1003.85 1004.46 1005.03 1005.55 1006.00 1006.38 1006.67 1006.90 1007.08 1007.22 1007.34 1007.44 1007.54 1007.62 1007.68 1007.71
1010.75 1009.91 1008.99 1008.02 1007.02 1006.03 1005.10 1004.25 1003.51 1002.90 1002.40 1002.03 1001.75 1001.55 1001.40 1001.28 1001.18 1001.11 1001.07 1001.07 1001.13 1001.28 1001.51 1001.85 1002.28 1002.79 1003.36 1003.96 1004.55 1005.12 1005.62 1006.05 1006.39 1006.66 1006.85 1006.99 1007.10 1007.18 1007.26 1007.34 1007.41 1007.47 1007.52
1010.12 1009.29 1008.40 1007.46 1006.50 1005.57 1004.70 1003.92 1003.26 1002.72 1002.31 1002.00 1001.80 1001.66 1001.56 1001.48 1001.42 1001.36 1001.33 1001.32 1001.37 1001.49 1001.70 1002.01 1002.40 1002.89 1003.43 1004.00 1004.57 1005.11 1005.60 1006.00 1006.32 1006.56 1006.73 1006.84 1006.91 1006.97 1007.02 1007.08 1007.15 1007.22 1007.27
1009.60 1008.81 1007.96 1007.07 1006.17 1005.31 1004.51 1003.80 1003.21 1002.74 1002.40 1002.15 1001.99 1001.90 1001.83 1001.77 1001.72 1001.67 1001.62 1001.60 1001.63 1001.71 1001.89 1002.15 1002.52 1002.96 1003.47 1004.02 1004.56 1005.08 1005.55 1005.94 1006.24 1006.46 1006.60 1006.68 1006.73 1006.77 1006.80 1006.84 1006.89 1006.94 1006.99
1009.24 1008.50 1007.70 1006.87 1006.04 1005.25 1004.52 1003.89 1003.36 1002.95 1002.65 1002.44 1002.31 1002.24 1002.18 1002.13 1002.08 1002.02 1001.95 1001.91 1001.90 1001.96 1002.10 1002.34 1002.66 1003.08 1003.56 1004.08 1004.61 1005.12 1005.57 1005.94 1006.23 1006.43 1006.56 1006.62 1006.64 1006.65 1006.65 1006.66 1006.67 1006.70 1006.72
1009.06 1008.36 1007.62 1006.85 1006.09 1005.37 1004.70 1004.13 1003.65 1003.28 1003.02 1002.84 1002.72 1002.65 1002.60 1002.54 1002.48 1002.41 1002.33 1002.27 1002.25 1002.28 1002.40 1002.61 1002.92 1003.31 1003.78 1004.29 1004.80 1005.30 1005.74 1006.11 1006.38 1006.57 1006.68 1006.71 1006.70 1006.66 1006.62 1006.58 1006.55 1006.52 1006.49
1008.99 1008.34 1007.66 1006.95 1006.26 1005.59 1004.99 1004.47 1004.03 1003.70 1003.46 1003.29 1003.19 1003.12 1003.07 1003.01 1002.94 1002.86 1002.78 1002.72 1002.70 1002.73 1002.84 1003.05 1003.35 1003.73 1004.19 1004.69 1005.20 1005.69 1006.12 1006.48 1006.74 1006.91 1006.99 1006.99 1006.93 1006.84 1006.73 1006.63 1006.52 1006.42 1006.32
1008.98 1008.37 1007.74 1007.09 1006.45 1005.85 1005.30 1004.82 1004.43 1004.12 1003.90 1003.76 1003.67 1003.61 1003.56 1003.52 1003.46 1003.40 1003.34 1003.29 1003.28 1003.33 1003.46 1003.67 1003.98 1004.37 1004.82 1005.32 1005.82 1006.30 1006.72 1007.06 1007.30 1007.44 1007.47 1007.42 1007.31 1007.15 1006.97 1006.78 1006.58 1006.40 1006.21
1008.94 1008.37 1007.78 1007.19 1006.60 1006.05 1005.55 1005.11 1004.76 1004.49 1004.30 1004.18 1004.11 1004.08 1004.06 1004.04 1004.02 1003.99 1003.96 1003.96 1003.98 1004.07 1004.22 1004.46 1004.78 1005.18 1005.63 1006.12 1006.61 1007.07 1007.46 1007.77 1007.97 1008.06 1008.05 1007.94 1007.76 1007.52 1007.26 1006.98 1006.70 1006.42 1006.15
1008.84 1008.30 1007.75 1007.19 1006.65 1006.14 1005.69 1005.30 1004.98 1004.75 1004.60 1004.51 1004.48 1004.48 1004.50 1004.53 1004.56 1004.59 1004.62 1004.66 1004.74 1004.87 1005.06 1005.33 1005.66 1006.06 1006.51 1006.98 1007.45 1007.87 1008.23 1008.50 1008.65 1008.69 1008.62 1008.45 1008.19 1007.88 1007.53 1007.17 1006.81 1006.45 1006.11
1008.66 1008.15 1007.62 1007.10 1006.59 1006.12 1005.70 1005.35 1005.08 1004.88 1004.77 1004.72 1004.74 1004.79 1004.86 1004.95 1005.04 1005.13 1005.22 1005.33 1005.46 1005.64 1005.87 1006.16 1006.50 1006.90 1007.34 1007.78 1008.21 1008.59 1008.90 1009.12 1009.22 1009.20 1009.07 1008.84 1008.52 1008.14 1007.73 1007.30 1006.88 1006.47 1006.08
Thickness
5789 5787 5785 5782 5780 5778 5775 5773 5771 5769 5766 5762 5760 5758 5756 5753 5751 5748 5747 5745 5743 5741 5740 5738 5736 5734 5733 5732 5730 5727 5724 5719 5712 5708 5704 5701 5696 5694 5692 5690 5688 5685 5682
5790 5786 5784 5781 5779 5778 5776 5773 5771 5768 5766 5763 5760 5758 5756 5753 5750 5747 5745 5744 5741 5739 5737 5735 5733 5732 5728 5728 5726 5723 5720 5716 5710 5702 5699 5696 5691 5689 5687 5685 5684 5682 5679
5791 5787 5783 5781 5778 5776 5774 5772 5770 5767 5764 5762 5759 5756 5754 5751 5749 5746 5744 5742 5739 5737 5735 5732 5730 5727 5724 5723 5720 5719 5716 5713 5709 5703 5698 5693 5689 5685 5682 5681 5679 5676 5675
5791 5787 5783 5780 5777 5775 5772 5769 5767 5765 5762 5759 5757 5754 5752 5750 5746 5744 5742 5740 5737 5735 5732 5729 5727 5724 5720 5718 5715 5713 5711 5707 5703 5700 5695 5690 5686 5682 5679 5676 5674 5672 5670
5789 5785 5782 5779 5777 5773 5769 5766 5764 5761 5759 5757 5754 5752 5751 5748 5745 5741 5739 5737 5734 5731 5728 5725 5723 5719 5715 5713 5712 5709 5705 5702 5699 5695 5690 5686 5682 5677 5675 5674 5671 5668 5665
5785 5782 5780 5776 5773 5770 5767 5764 5760 5757 5755 5754 5752 5749 5747 5746 5740 5735 5734 5734 5731 5728 5725 5722 5719 5715 5711 5707 5704 5701 5699 5697 5694 5690 5687 5682 5678 5675 5672 5670 5666 5662 5658
5780 5778 5776 5773 5770 5767 5765 5761 5757 5755 5753 5751 5748 5745 5743 5740 5735 5731 5728 5728 5727 5725 5722 5718 5717 5713 5708 5705 5700 5695 5693 5690 5687 5686 5683 5680 5676 5672 5667 5664 5660 5658 5655
5775 5773 5771 5769 5766 5764 5760 5757 5755 5752 5749 5747 5744 5742 5740 5737 5731 5727 5724 5724 5723 5720 5717 5714 5711 5707 5704 5699 5697 5694 5691 5687 5683 5680 5678 5675 5672 5667 5662 5659 5656 5652 5650
5770 5768 5766 5764 5761 5759 5756 5754 5751 5748 5745 5744 5741 5738 5736 5732 5726 5722 5718 5719 5718 5715 5713 5709 5706 5702 5695 5691 5690 5688 5685 5682 5678 5674 5670 5667 5662 5658 5655 5652 5649 5646 5644
5765 5764 5761 5758 5755 5753 5751 5749 5747 5745 5741 5739 5737 5735 5732 5728 5721 5717 5712 5715 5713 5710 5707 5704 5698 5695 5689 5684 5684 5681 5678 5676 5675 5671 5665 5660 5657 5652 5648 5645 5644 5641 5640
5759 5757 5754 5752 5748 5746 5745 5743 5741 5739 5736 5733 5731 5729 5727 5723 5716 5712 5707 5709 5708 5706 5704 5701 5696 5687 5682 5677 5676 5675 5672 5669 5668 5665 5661 5658 5654 5649 5645 5641 5638 5636 5635
5750 5747 5745 5744 5743 5741 5738 5736 5734 5732 5729 5726 5723 5722 5720 5717 5713 5707 5702 5700 5700 5699 5697 5695 5689 5680 5674 5670 5668 5666 5663 5660 5661 5659 5656 5653 5649 5645 5642 5638 5633 5630 5627
5739 5737 5735 5734 5733 5732 5731 5729 5727 5725 5724 5721 5720 5717 5715 5714 5709 5702 5696 5693 5690 5690 5689 5684 5678 5671 5667 5663 5659 5656 5654 5655 5655 5652 5649 5646 5643 5640 5636 5631 5627 5623 5619
5730 5728 5726 5724 5724 5723 5722 5722 5721 5720 5718 5717 5715 5712 5709 5707 5705 5699 5694 5689 5683 5682 5680 5675 5669 5664 5660 5657 5654 5651 5650 5651 5649 5646 5643 5640 5636 5632 5628 5625 5622 5618 5615
5722 5720 5718 5717 5716 5714 5713 5712 5712 5713 5712 5709 5708 5707 5703 5700 5697 5691 5689 5685 5682 5678 5673 5670 5666 5662 5657 5654 5652 5650 5647 5645 5641 5638 5635 5632 5629 5626 5622 5618 5614 5611 5609
5713 5712 5712 5710 5708 5707 5705 5704 5702 5701 5700 5698 5697 5696 5696 5691 5685 5681 5677 5673 5669 5665 5663 5664 5661 5657 5654 5651 5648 5644 5641 5638 5635 5632 5629 5626 5622 5618 5615 5612 5608 5605 5602
5705 5704 5703 5702 5701 5699 5699 5697 5695 5692 5688 5687 5686 5683 5681 5677 5674 5669 5666 5662 5659 5655 5656 5657 5654 5652 5649 5646 5643 5639 5636 5632 5628 5625 5622 5619 5614 5611 5608 5605 5602 5599 5597
5696 5695 5694 5693 5693 5692 5692 5690 5688 5687 5685 5682 5677 5673 5669 5666 5663 5659 5655 5652 5652 5649 5651 5651 5649 5647 5644 5640 5637 5633 5630 5626 5622 5618 5615 5611 5607 5604 5602 5599 5597 5593 5590
5687 5686 5685 5685 5685 5684 5683 5682 5681 5679 5677 5675 5672 5666 5659 5656 5652 5649 5646 5650 5652 5649 5647 5645 5643 5641 5638 5634 5629 5626 5622 5618 5614 5611 5607 5603 5601 5598 5596 5594 5592 5586 5583
5677 5675 5674 5675 5674 5674 5673 5672 5671 5670 5668 5666 5664 5662 5656 5650 5648 5645 5643 5645 5645 5644 5641 5638 5636 5634 5630 5626 5622 5618 5615 5611 5606 5603 5600 5597 5595 5592 5590 5587 5585 5582 5579
5668 5666 5662 5663 5664 5664 5664 5663 5662 5661 5660 5659 5657 5654 5648 5647 5645 5644 5642 5640 5639 5637 5634 5631 5629 5626 5622 5618 5614 5611 5607 5604 5601 5598 5595 5592 5589 5585 5583 5581 5579 5576 5574
5658 5658 5656 5655 5654 5654 5654 5654 5653 5652 5651 5649 5647 5644 5637 5639 5639 5638 5636 5634 5631 5628 5626 5623 5621 5618 5615 5611 5607 5604 5600 5597 5594 5591 5588 5585 5583 5580 5578 5575 5573 5571 5568
5648 5648 5647 5646 5644 5642 5643 5644 5643 5643 5642 5641 5639 5637 5634 5632 5631 5630 5628 5626 5622 5620 5618 5614 5611 5609 5607 5603 5600 5597 5593 5590 5587 5584 5580 5578 5576 5574 5571 5569 5567 5565 5563
5639 5638 5637 5637 5636 5635 5635 5636 5635 5634 5633 5631 5630 5629 5626 5624 5622 5620 5619 5617 5615 5612 5610 5607 5604 5601 5598 5594 5591 5589 5585 5581 5578 5575 5572 5570 5568 5567 5564 5562 5560 5559 5556
5630 5629 5628 5629 5629 5629 5628 5628 5627 5626 5624 5623 5622 5620 5618 5617 5615 5612 5611 5609 5606 5603 5601 5599 5596 5593 5590 5586 5583 5580 5575 5571 5568 5565 5564 5563 5561 5559 5557 5555 5553 5551 5549
5621 5621 5621 5621 5622 5621 5621 5620 5619 5618 5617 5615 5614 5612 5610 5609 5607 5605 5602 5600 5597 5594 5592 5590 5588 5584 5581 5579 5575 5571 5566 5562 5559 5556 5554 5554 5553 5551 5549 5547 5545 5543 5541